Temp
-2 -2 -3 -3 -3 -3 -2 -2 -2 -4 -4 -5 -5 -6 -6 -6 -5 -5 -5 -6 -6 -6 -6 -6 -6 -6 -5 -5 -5 -4 -3 -2 -2 -1 -0 1 1 1 1 1 1 1 2
-2 -3 -3 -3 -3 -3 -3 -3 -3 -5 -5 -6 -6 -6 -7 -7 -6 -6 -6 -5 -6 -6 -7 -7 -6 -6 -6 -5 -5 -5 -5 -6 -5 -5 -4 -2 -1 -1 0 0 0 -0 1
-3 -4 -4 -4 -4 -4 -4 -4 -4 -6 -6 -7 -7 -7 -7 -7 -7 -6 -6 -5 -6 -6 -6 -6 -6 -6 -5 -6 -5 -5 -5 -5 -4 -4 -5 -4 -4 -4 -3 -1 -0 -1 -1
-4 -4 -4 -5 -4 -4 -5 -5 -6 -7 -7 -8 -8 -8 -7 -7 -7 -7 -6 -6 -6 -6 -6 -6 -6 -5 -5 -5 -5 -5 -5 -4 -4 -4 -4 -4 -4 -4 -4 -4 -3 -2 -2
-4 -5 -5 -5 -5 -5 -6 -6 -7 -8 -8 -8 -8 -7 -7 -7 -7 -7 -7 -6 -6 -6 -6 -6 -5 -5 -5 -6 -5 -5 -4 -4 -4 -4 -4 -4 -4 -4 -4 -3 -3 -3 -2
-5 -6 -6 -6 -5 -6 -7 -7 -8 -8 -8 -8 -7 -7 -7 -7 -7 -7 -7 -7 -6 -6 -6 -6 -6 -5 -6 -6 -5 -5 -4 -4 -4 -3 -3 -3 -3 -3 -3 -3 -3 -3 -3
-6 -6 -6 -6 -6 -7 -7 -8 -9 -8 -8 -8 -7 -7 -7 -7 -7 -7 -7 -7 -7 -7 -7 -7 -6 -6 -6 -6 -5 -5 -4 -4 -4 -3 -3 -3 -3 -3 -3 -3 -2 -2 -2
-6 -7 -6 -6 -7 -7 -8 -8 -8 -8 -8 -8 -8 -8 -8 -8 -7 -7 -7 -7 -7 -7 -7 -7 -7 -6 -6 -6 -6 -5 -5 -4 -4 -4 -3 -3 -3 -3 -2 -2 -2 -2 -1
-7 -7 -7 -7 -7 -7 -8 -8 -8 -8 -8 -8 -8 -8 -8 -7 -8 -8 -8 -8 -8 -8 -8 -7 -7 -7 -7 -7 -6 -6 -5 -4 -4 -4 -4 -3 -3 -2 -2 -3 -3 -3 -3
-7 -7 -7 -8 -8 -8 -8 -8 -8 -8 -9 -8 -8 -8 -8 -8 -8 -8 -8 -8 -8 -8 -8 -8 -8 -8 -8 -7 -7 -7 -6 -6 -6 -5 -5 -4 -4 -4 -3 -2 -2 -2 -2
-8 -7 -8 -8 -8 -8 -8 -8 -9 -9 -9 -8 -9 -9 -9 -9 -8 -8 -9 -9 -9 -9 -9 -9 -9 -8 -8 -8 -7 -7 -7 -6 -6 -6 -6 -5 -5 -5 -5 -4 -3 -3 -3
-8 -8 -8 -9 -8 -9 -9 -9 -9 -9 -9 -9 -9 -9 -9 -9 -9 -9 -9 -9 -9 -9 -9 -9 -9 -9 -8 -8 -8 -8 -7 -7 -7 -7 -7 -7 -7 -6 -6 -5 -5 -5 -4
-8 -8 -9 -9 -9 -9 -9 -9 -9 -9 -9 -9 -9 -9 -9 -9 -9 -9 -9 -10 -10 -10 -10 -10 -10 -9 -9 -9 -9 -9 -9 -9 -9 -8 -8 -8 -7 -7 -8 -8 -8 -8 -7
-8 -9 -9 -9 -9 -9 -9 -9 -9 -9 -9 -10 -10 -10 -10 -10 -10 -10 -10 -10 -10 -10 -10 -10 -10 -10 -10 -10 -10 -10 -10 -9 -9 -9 -9 -9 -9 -9 -9 -9 -9 -10 -10
-9 -9 -10 -9 -9 -10 -10 -10 -10 -10 -10 -10 -10 -11 -11 -11 -11 -11 -11 -11 -11 -11 -11 -11 -11 -11 -11 -11 -11 -11 -11 -11 -10 -10 -10 -10 -10 -10 -10 -10 -10 -10 -10
-10 -10 -10 -10 -10 -10 -10 -10 -10 -10 -11 -11 -11 -11 -11 -11 -11 -11 -11 -11 -11 -12 -12 -12 -12 -12 -12 -12 -12 -11 -11 -11 -11 -11 -11 -11 -12 -12 -12 -12 -12 -12 -12
-11 -11 -10 -10 -11 -11 -10 -10 -11 -11 -11 -11 -11 -11 -11 -11 -11 -12 -12 -12 -12 -12 -12 -13 -13 -13 -13 -13 -13 -13 -13 -13 -13 -13 -14 -14 -14 -14 -14 -14 -14 -14 -14
-11 -11 -11 -11 -11 -11 -11 -11 -11 -11 -11 -11 -12 -12 -12 -12 -12 -12 -12 -12 -13 -13 -14 -14 -14 -14 -14 -14 -15 -15 -15 -15 -15 -15 -15 -15 -15 -15 -15 -15 -15 -15 -15
-12 -12 -11 -11 -11 -11 -11 -11 -12 -12 -12 -12 -12 -12 -12 -13 -13 -13 -13 -14 -14 -15 -15 -15 -15 -15 -15 -16 -16 -16 -16 -17 -17 -17 -17 -17 -17 -17 -17 -17 -17 -17 -17
-13 -12 -12 -11 -12 -12 -12 -12 -12 -12 -12 -12 -12 -13 -13 -13 -13 -14 -14 -14 -15 -15 -16 -16 -16 -16 -17 -17 -17 -17 -18 -18 -18 -18 -18 -18 -18 -19 -19 -19 -19 -19 -19
-12 -12 -12 -12 -12 -12 -12 -12 -12 -12 -13 -13 -13 -13 -13 -14 -14 -14 -15 -15 -16 -16 -17 -17 -17 -18 -18 -18 -18 -18 -19 -19 -19 -19 -20 -20 -20 -20 -20 -20 -21 -21 -21
-13 -13 -13 -13 -13 -13 -13 -13 -13 -13 -13 -13 -13 -14 -14 -15 -15 -15 -16 -16 -17 -17 -18 -18 -18 -18 -19 -19 -19 -19 -20 -20 -20 -21 -21 -21 -21 -21 -22 -22 -22 -22 -22
-13 -13 -13 -13 -13 -13 -13 -13 -13 -14 -14 -14 -14 -15 -15 -15 -16 -16 -17 -17 -18 -18 -18 -19 -19 -19 -20 -20 -20 -20 -21 -21 -21 -21 -22 -22 -22 -22 -23 -23 -23 -23 -24
-13 -13 -13 -13 -14 -14 -14 -14 -14 -14 -14 -15 -15 -15 -16 -16 -16 -17 -17 -18 -18 -19 -19 -20 -20 -20 -20 -21 -21 -21 -21 -22 -22 -22 -22 -23 -23 -23 -24 -24 -24 -24 -25
-14 -14 -14 -14 -14 -14 -14 -14 -15 -15 -15 -15 -16 -16 -16 -17 -17 -18 -18 -19 -19 -20 -20 -20 -21 -21 -21 -22 -22 -22 -22 -22 -23 -23 -24 -24 -24 -24 -25 -25 -25 -25 -26
-15 -15 -15 -15 -15 -15 -15 -15 -15 -16 -16 -16 -16 -17 -17 -17 -18 -18 -19 -19 -20 -20 -21 -21 -21 -22 -22 -22 -22 -23 -23 -23 -24 -24 -24 -25 -25 -25 -25 -26 -26 -26 -27
Height
3060 3059 3058 3056 3053 3049 3046 3043 3039 3038 3033 3029 3025 3022 3019 3016 3013 3012 3010 3007 3005 2999 2996 2991 2988 2987 2985 2983 2983 2983 2983 2983 2984 2985 2984 2986 2987 2988 2989 2991 2992 2995 2998
3054 3054 3052 3051 3048 3044 3041 3036 3033 3032 3029 3025 3021 3019 3016 3014 3011 3009 3007 3005 3003 2999 2996 2991 2988 2986 2983 2981 2979 2978 2978 2979 2980 2978 2976 2977 2978 2979 2981 2982 2982 2985 2988
3050 3048 3047 3044 3042 3039 3035 3031 3028 3027 3024 3021 3017 3015 3013 3011 3009 3007 3005 3003 3001 2997 2994 2991 2988 2986 2983 2980 2978 2978 2977 2974 2974 2973 2972 2972 2971 2972 2973 2974 2975 2977 2978
3044 3043 3042 3039 3035 3033 3030 3027 3025 3024 3021 3018 3015 3013 3011 3009 3007 3005 3002 2999 2998 2995 2992 2989 2987 2986 2984 2980 2978 2975 2973 2973 2972 2970 2969 2968 2967 2966 2967 2969 2969 2969 2970
3039 3037 3035 3033 3030 3027 3025 3023 3021 3020 3018 3016 3014 3012 3009 3006 3005 3003 3000 2998 2995 2993 2990 2988 2985 2983 2981 2976 2974 2974 2973 2971 2969 2969 2967 2967 2965 2963 2962 2962 2962 2962 2965
3033 3031 3030 3028 3025 3023 3021 3020 3018 3017 3015 3014 3012 3009 3006 3004 3003 3001 2998 2996 2993 2990 2988 2985 2982 2980 2977 2975 2974 2974 2972 2970 2968 2966 2964 2963 2962 2961 2959 2959 2958 2957 2958
3028 3025 3025 3022 3020 3019 3018 3017 3016 3015 3013 3011 3009 3007 3005 3003 3002 3000 2997 2995 2993 2990 2987 2984 2981 2978 2977 2975 2973 2971 2969 2968 2966 2964 2962 2961 2959 2958 2956 2955 2953 2952 2953
3022 3022 3020 3017 3016 3016 3015 3014 3014 3012 3011 3009 3007 3005 3004 3003 3001 3000 2997 2995 2992 2990 2987 2984 2981 2978 2975 2972 2971 2969 2967 2965 2963 2962 2959 2957 2956 2954 2952 2951 2951 2947 2945
3015 3017 3014 3013 3013 3012 3012 3012 3011 3010 3008 3007 3005 3003 3002 3001 3000 2998 2996 2994 2991 2988 2985 2983 2980 2978 2975 2972 2969 2967 2965 2963 2961 2959 2957 2955 2952 2950 2949 2947 2946 2946 2943
3011 3011 3009 3009 3009 3009 3008 3009 3009 3008 3006 3004 3003 3002 3001 3000 2999 2997 2994 2991 2989 2986 2984 2981 2979 2977 2975 2973 2970 2968 2965 2963 2960 2958 2955 2952 2950 2947 2943 2941 2939 2938 2937
3004 3004 3005 3005 3006 3005 3005 3006 3006 3004 3003 3002 3001 3000 2999 2998 2996 2994 2991 2989 2986 2984 2982 2980 2978 2976 2974 2972 2970 2967 2964 2961 2958 2956 2953 2950 2947 2944 2940 2937 2933 2930 2928
2999 3000 3000 3001 3002 3002 3003 3003 3003 3002 3001 3000 2999 2998 2997 2996 2994 2992 2990 2988 2985 2983 2981 2978 2976 2973 2971 2968 2966 2963 2961 2958 2955 2952 2949 2947 2944 2941 2938 2935 2932 2927 2921
2994 2995 2996 2997 2998 2999 3000 3000 3000 2999 2998 2997 2996 2996 2994 2993 2991 2989 2987 2985 2983 2981 2978 2975 2973 2970 2967 2964 2961 2958 2955 2953 2950 2947 2944 2941 2938 2935 2932 2928 2924 2921 2917
2989 2991 2993 2993 2995 2996 2996 2997 2997 2996 2995 2995 2994 2993 2991 2990 2988 2986 2984 2982 2981 2978 2975 2972 2970 2966 2963 2960 2957 2954 2951 2948 2945 2941 2938 2933 2928 2925 2921 2918 2917 2915 2913
2984 2987 2988 2990 2992 2993 2994 2994 2993 2993 2993 2992 2991 2991 2989 2987 2985 2982 2981 2979 2977 2975 2973 2969 2965 2962 2959 2956 2953 2950 2946 2942 2939 2934 2931 2927 2923 2919 2914 2910 2906 2902 2898
2980 2982 2985 2987 2988 2989 2990 2990 2990 2990 2990 2989 2988 2988 2987 2985 2983 2981 2979 2977 2975 2972 2969 2965 2962 2959 2956 2953 2949 2945 2941 2936 2932 2928 2923 2918 2914 2910 2906 2902 2897 2892 2887
2975 2978 2982 2983 2985 2986 2986 2987 2987 2987 2987 2987 2986 2985 2984 2982 2980 2978 2976 2974 2971 2968 2964 2961 2958 2955 2951 2947 2943 2939 2935 2931 2926 2922 2918 2913 2908 2903 2898 2892 2887 2882 2879
2970 2975 2978 2980 2981 2982 2983 2983 2984 2984 2983 2983 2982 2982 2980 2978 2976 2974 2972 2969 2966 2963 2960 2957 2954 2950 2947 2943 2939 2935 2930 2925 2920 2916 2911 2905 2900 2894 2890 2885 2879 2873 2868
2968 2971 2974 2976 2978 2979 2980 2981 2981 2981 2980 2980 2979 2978 2977 2974 2972 2970 2967 2964 2960 2958 2956 2953 2950 2946 2942 2937 2933 2928 2923 2919 2914 2909 2903 2898 2893 2888 2883 2877 2871 2865 2859
2964 2968 2971 2973 2974 2976 2977 2977 2977 2977 2976 2976 2976 2975 2972 2970 2967 2965 2962 2959 2957 2955 2951 2948 2944 2940 2936 2932 2927 2923 2918 2913 2908 2903 2898 2893 2888 2881 2876 2870 2864 2857 2851
2961 2964 2966 2968 2969 2971 2972 2973 2973 2973 2972 2971 2970 2969 2967 2965 2962 2960 2957 2955 2952 2949 2945 2942 2939 2935 2930 2926 2922 2917 2912 2908 2903 2898 2893 2887 2882 2876 2870 2864 2857 2850 2844
2959 2962 2963 2965 2966 2968 2968 2969 2969 2969 2968 2966 2965 2964 2962 2960 2957 2955 2952 2950 2946 2943 2940 2937 2933 2929 2925 2921 2916 2912 2907 2903 2898 2892 2887 2881 2875 2870 2864 2857 2851 2844 2837
2956 2958 2960 2961 2963 2964 2964 2964 2964 2964 2963 2962 2960 2958 2957 2954 2952 2949 2947 2944 2940 2937 2934 2931 2927 2923 2919 2914 2910 2906 2902 2897 2891 2886 2881 2875 2869 2863 2857 2850 2843 2836 2829
2952 2954 2956 2958 2959 2959 2959 2959 2959 2959 2958 2957 2955 2953 2951 2948 2946 2942 2940 2938 2934 2931 2928 2925 2921 2917 2913 2908 2904 2899 2894 2889 2884 2879 2874 2868 2863 2857 2850 2844 2837 2830 2822
2949 2950 2951 2953 2954 2954 2954 2954 2954 2954 2952 2951 2949 2947 2945 2942 2940 2936 2934 2931 2928 2925 2922 2918 2914 2911 2907 2903 2898 2893 2888 2883 2877 2873 2868 2862 2856 2850 2844 2837 2830 2823 2816
2944 2946 2947 2948 2949 2949 2949 2949 2948 2947 2946 2944 2942 2941 2938 2936 2933 2930 2928 2925 2922 2918 2915 2912 2908 2905 2901 2897 2892 2887 2882 2877 2872 2866 2861 2856 2851 2845 2838 2832 2825 2818 2810
Wind_Speed
27 27 27 28 28 27 28 29 29 26 25 23 23 20 17 14 12 13 16 16 16 13 11 9 9 14 14 14 16 19 22 25 25 26 27 26 29 31 33 36 38 40 41
28 27 27 29 26 26 27 27 27 24 23 20 21 19 17 18 14 15 18 18 16 15 13 11 6 6 5 5 6 9 12 16 15 16 20 20 23 24 26 28 30 34 35
27 26 27 26 25 25 25 25 25 21 20 18 17 17 14 14 15 17 17 16 18 14 14 10 10 10 8 6 5 5 6 8 10 10 16 21 23 21 20 21 25 29 30
25 26 26 23 22 23 23 23 22 18 17 15 14 14 17 17 17 17 18 18 16 16 15 13 11 11 9 7 7 8 8 8 9 11 12 11 13 19 21 19 19 23 24
25 25 22 22 21 20 21 22 18 15 14 14 13 16 17 17 16 15 15 15 15 13 13 12 10 9 7 6 7 9 9 9 9 9 10 11 11 12 12 13 17 22 25
25 22 20 18 20 20 19 18 14 11 12 13 14 17 15 15 14 13 13 14 15 14 14 13 12 10 10 8 5 5 6 7 7 8 9 10 11 12 12 11 10 10 16
24 20 18 18 18 17 15 11 11 11 12 13 13 14 13 13 13 12 12 12 11 11 12 12 12 12 10 9 8 8 7 6 7 8 8 9 9 9 10 12 15 15 13
21 18 18 16 14 11 9 8 11 12 12 11 11 11 11 10 10 9 9 10 10 10 11 12 13 13 13 13 12 12 12 12 11 11 11 12 13 12 13 12 13 16 18
19 16 15 15 12 10 10 11 12 11 11 11 9 10 11 11 10 9 9 10 10 10 11 12 13 14 15 15 16 16 16 15 14 14 15 15 15 15 15 17 17 16 17
16 15 15 15 12 12 10 10 10 10 9 10 9 9 9 9 10 10 12 12 12 12 12 12 11 12 12 13 14 15 15 16 17 18 18 19 20 22 23 24 24 24 24
17 16 16 16 14 12 10 9 9 8 9 9 8 9 8 9 10 11 12 14 14 14 14 13 13 12 12 12 13 13 15 16 17 18 20 21 23 25 27 29 32 33 33
17 17 16 16 13 10 10 8 7 7 9 8 7 7 8 9 10 12 13 14 14 14 14 14 14 14 14 15 16 17 19 20 20 21 22 22 23 24 26 27 30 33 37
18 17 17 14 12 11 9 7 7 7 6 7 7 7 8 9 10 12 13 14 15 14 14 15 15 16 17 18 20 21 22 22 23 24 25 25 26 26 26 27 29 30 34
19 18 16 14 13 11 9 7 6 6 5 6 7 7 8 9 10 11 12 14 15 16 17 17 18 19 21 22 23 23 24 24 25 26 27 28 29 30 31 31 30 29 28
19 18 17 15 13 10 9 8 6 6 6 6 7 8 9 10 12 13 14 15 16 17 17 18 20 22 22 24 24 25 26 27 27 28 28 29 30 31 33 34 34 35 36
18 19 16 15 13 10 9 8 6 6 6 7 8 10 11 11 12 13 14 14 15 16 18 19 20 21 23 25 26 28 28 29 30 30 31 32 33 33 32 32 34 35 36
21 18 17 14 13 12 10 7 7 6 7 7 9 10 12 13 13 14 15 15 16 18 19 21 22 24 26 27 28 28 28 28 29 29 30 31 31 32 33 34 36 37 37
20 18 17 16 14 12 10 8 7 7 8 8 9 11 12 14 15 15 16 18 18 19 20 22 24 25 26 26 26 26 27 28 29 30 31 32 33 34 35 36 37 40 41
18 19 18 16 14 11 10 9 8 8 9 9 10 12 13 15 16 16 17 19 19 20 21 23 24 25 26 27 28 28 28 29 30 31 33 33 34 35 36 38 39 41 42
20 20 18 16 13 12 10 9 8 8 9 10 11 12 14 16 17 18 19 20 20 21 22 23 24 26 27 27 28 28 29 29 30 32 32 33 34 36 37 39 40 42 43
19 18 16 13 12 11 10 9 9 9 10 12 13 14 15 17 18 19 20 20 21 22 23 24 25 26 27 28 28 29 29 30 31 31 32 33 34 35 37 38 40 42 43
17 16 14 13 12 11 10 10 10 10 12 13 15 16 17 18 19 20 20 21 21 22 23 24 26 26 27 28 28 28 29 30 30 31 32 33 34 36 37 39 40 42 43
14 14 13 13 12 12 11 11 10 11 12 14 16 17 18 19 20 21 21 22 22 23 24 25 26 27 27 28 29 29 29 30 31 31 32 33 35 36 38 39 41 43 44
15 15 15 14 13 13 12 11 11 12 14 16 17 18 19 21 21 23 22 23 23 24 24 26 26 27 28 29 30 30 31 31 32 33 34 34 35 36 37 39 41 42 43
15 16 16 14 13 13 12 12 12 13 16 18 19 20 21 22 21 23 23 24 24 25 25 26 27 27 28 29 30 31 31 32 33 33 34 34 35 36 37 39 40 41 42
17 16 15 14 13 12 12 12 14 17 18 20 21 21 22 22 22 24 23 24 25 25 26 27 27 28 28 29 30 30 31 31 32 33 33 34 34 34 36 37 39 40 40
Wind_Direction
289 295 302 310 314 318 318 316 314 309 312 312 308 306 303 301 312 318 319 322 328 341 331 316 298 294 285 280 275 273 273 277 281 276 271 263 253 250 249 250 253 253 251
284 292 300 305 309 314 314 312 309 309 310 311 308 304 294 289 298 309 307 306 307 318 320 333 352 356 0 343 314 306 296 293 288 291 286 279 273 267 250 249 249 249 247
280 287 298 301 305 311 311 309 308 309 309 311 311 313 297 289 298 300 304 306 309 310 311 311 315 315 315 318 344 355 353 358 354 325 291 283 280 275 274 266 252 246 243
280 288 294 295 305 307 307 305 304 308 306 308 304 309 308 306 304 301 302 307 308 309 309 310 304 289 288 296 302 320 332 331 342 351 349 333 307 288 278 266 267 260 247
281 287 288 293 298 303 304 302 303 305 302 303 294 308 308 308 308 308 307 306 311 314 313 314 313 309 307 332 331 317 315 317 319 318 316 323 330 330 318 294 276 266 258
282 279 281 290 299 299 300 298 301 302 301 305 303 311 314 314 314 313 311 314 315 318 321 325 327 333 341 345 341 315 320 317 316 314 318 310 313 309 310 317 314 297 274
281 269 275 282 289 294 295 292 299 301 303 309 312 312 317 318 318 316 318 320 323 325 328 331 334 335 341 348 350 350 354 349 345 343 343 338 334 331 322 320 312 305 296
267 264 268 276 279 279 286 286 299 303 310 312 313 315 318 317 314 313 320 323 327 330 333 336 336 336 338 344 344 345 348 345 345 340 338 336 335 336 333 331 327 324 318
257 256 268 271 267 258 269 285 292 301 309 312 316 323 325 320 318 322 326 328 333 335 338 336 335 332 335 337 339 337 336 334 335 334 331 328 327 327 328 329 326 318 310
245 250 260 258 248 256 273 282 289 301 308 310 317 311 309 316 321 329 334 338 341 343 342 338 337 334 330 328 326 325 325 328 329 328 331 332 330 327 325 322 320 318 313
242 249 249 243 244 260 271 281 291 298 298 304 309 311 317 323 330 336 340 343 346 345 341 339 337 331 324 319 316 317 318 317 320 325 326 325 324 324 322 320 317 315 313
244 248 242 236 244 255 263 271 280 288 292 299 304 310 318 328 336 340 342 343 341 339 337 335 334 333 332 332 332 330 329 329 328 325 323 322 318 315 312 311 310 310 309
245 245 237 234 240 244 251 262 272 276 285 298 303 308 319 331 338 340 343 342 339 338 339 338 337 338 341 340 337 334 333 328 322 319 317 315 314 314 316 318 316 313 309
239 236 229 230 234 236 245 251 259 273 289 300 306 307 313 322 329 338 342 338 336 336 337 337 336 339 340 337 335 331 327 324 321 320 320 321 322 321 318 315 313 309 305
230 224 222 228 229 231 237 246 255 269 282 291 297 303 312 322 334 337 335 333 331 329 330 332 339 341 335 331 328 326 325 325 323 322 322 321 320 318 317 315 314 314 313
224 221 221 224 226 230 236 243 255 272 289 300 308 313 316 318 321 322 322 322 324 327 329 333 335 332 331 329 327 326 325 324 323 323 323 324 322 320 319 320 321 320 320
220 211 218 219 222 227 234 244 261 274 286 297 302 306 309 311 317 316 318 321 324 328 332 333 330 329 328 328 327 325 323 323 324 326 325 324 324 325 325 325 325 325 324
207 211 214 217 222 228 235 245 258 272 286 300 304 307 305 306 311 314 317 322 324 329 330 327 326 326 326 325 324 325 327 329 329 328 327 327 328 327 327 327 327 326 325
197 210 214 219 223 228 235 245 254 265 280 296 302 303 305 306 310 315 319 321 326 325 322 321 323 325 327 327 328 328 329 329 329 330 330 329 328 328 328 328 328 327 327
202 210 213 216 219 226 234 246 260 273 285 294 300 302 306 310 313 316 318 319 318 316 318 321 325 327 326 327 327 328 329 330 329 329 328 329 329 329 329 329 329 328 328
208 214 220 225 233 241 250 258 269 280 289 296 302 308 311 312 312 313 313 312 312 315 319 322 324 325 325 326 327 328 329 329 329 328 329 330 329 329 330 331 331 330 328
214 219 224 229 236 244 252 261 271 282 291 299 305 308 309 307 308 308 309 310 312 315 317 320 322 323 323 324 326 326 327 327 328 329 329 329 330 330 331 331 331 330 329
222 227 233 238 244 249 257 266 276 286 293 300 303 304 305 305 307 307 308 309 311 313 316 318 320 321 323 323 324 325 325 327 328 329 329 330 330 331 331 332 333 332 330
224 230 236 239 243 251 260 270 280 289 297 300 300 303 305 305 307 305 307 308 309 312 314 316 318 319 321 321 322 323 326 327 328 329 329 330 330 330 331 332 333 332 332
232 235 239 243 248 257 265 273 283 296 302 304 304 305 304 303 304 302 306 307 308 310 313 314 316 317 318 319 320 322 324 325 327 328 328 328 329 329 331 332 333 333 332
229 235 240 246 253 261 270 280 293 300 303 302 302 303 300 301 301 302 305 305 306 308 310 311 312 314 315 317 318 319 322 324 325 325 325 326 327 329 330 332 333 333 332